Погода в Богучаре

Погода в Богучаре : погода сейчас, прогноз погоды и архив. Всё, что Вы хотите узнать о погоде в Богучаре!

Хотите узнать прогноз погоды в Богучаре? Тогда Вам сюда: Погода в Богучаре

Поиск расширенной информации на нашем сайте:

Другие новости

Новости СМИ2

Главная страница сайта

Новости сайта

03.07.2017

Напоминаем, что на нашем специализированном сайте Метеоцентр.Азия вы можете получить высокодетализированные автоматические прогнозы погоды по пунктам России, СНГ и мира в авиационном формате (включающие направление и скорость ветра, видимость, явления погоды, количество и форму облачности, нижнюю и верхнюю границу облачности).


Погода в Богучаре - сегодня

Время (UTC), дата Ветер
(°,м/с) 
Видим.   Явления Облачность Т
(°С)
Тd
(°С)
f(%) Тe
(°С)
Pmin
(гПа)
dP
(гПа)
Po
(мм)
O2
(г/м3)
Тmin Tmax R s Состояние
почвы
15 17.10.17 270 (З) 10 км    10/5 300 м средняя 
[Frnb|As op]
+10.8 +8.1 83 +10  1016.1  755  291    +12.6       
18 17.10.17 270 (З) 10 км    10/8 300 м кучево-дожд., средняя 
[Cb calv|As op]
+10.6 +7.3 80 +11  1017.6  1.4  756  292           
21 17.10.17 270 (З) 10 км    ясно 
+9.7 +6.9 83 +10  1018.6  756  293           
00 18.10.17 290 (З) 10 км    ясно 
+8.4 +6.2 86 +8  1020.5  1.9  758  295           
03 18.10.17 230 (ЮЗ) 4000 м  дымка  ясно 
+3.9 +2.7 92 +5  1021.5  0.8  758  301  +3.9      мокрый или
старый снег
10-40% 
06 18.10.17 230 (ЮЗ) 0050 м  туман  ?/?  
+5.1 +4.6 97 +5  1021.3  -0.2  758  299           
09 18.10.17 230 (ЮЗ) 20000 м  {туман}  ясно 
+14.9 +8.4 65 +15  1020.3  -0.6  758  288           
12 18.10.17 230 (ЮЗ) 4{11}  20000 м  {туман}  ясно 
+17.8 +7.1 49 +18  1018.4  -1.8  756  285           
15 18.10.17 230 (ЮЗ) 10 км    ясно 
+14.6 +8.7 68 +15  1017.8  -0.7  756  288    +17.9       
18 18.10.17 230 (ЮЗ) 10 км    ясно 
+12.5 +8.7 78 +12  1017.1  -0.8  755  289           
21 18.10.17 230 (ЮЗ) 10 км    ясно 
+11.6 +8.4 81 +11  1016.9  -0.3  755  290           
00 19.10.17 230 (ЮЗ) 10 км    ясно 
+10.7 +8.3 85 +10  1016.2  -0.6  755  291           
03 19.10.17 230 (ЮЗ) 10 км    10/0 средняя, верхняя 
[Ac trans|Cs]
+9.9 +8.3 90 +9  1015.9  -0.3  754  292  +9.9         
06 19.10.17 230 (ЮЗ) 2000 м  дымка  6/0 верхняя 
[Cs]
+11.9 +9.5 85 +11  1015.8  754  290           
09 19.10.17 250 (З) 2000 м  дымка  9/0 средняя, верхняя 
[Ac trans|Cs]
+14.6 +10.8 78 +17  1016.2  0.4  755  287           
12 19.10.17 320 (СЗ) 2000 м  дымка  10/6 600 м средняя 
[St|As trans]
+14.8 +11.5 81 +18  1016.1  -0.1  755  286           
15 19.10.17 тихо ()   1000 м  дымка  10/6 300 м средняя 
[Frnb|As op]
+12.7 +11 89 +15  1017.4  1.2  755  289    +16.5       
18 19.10.17 230 (ЮЗ) 4000 м  дымка  10/0 средняя 
[As trans]
+11 +10.6 97 +14  1017.6  0.1  756  291           
21 19.10.17 тихо ()   2000 м  дымка  10/0 средняя 
[As op]
+10.4 +9.8 96 +11  1018.2  0.6  756  292           
00 20.10.17 050 (СВ) 2000 м  дымка  10/0 средняя 
[As trans]
+10.1 +9.8 98 +12  1018.4  0.2  756  292           
03 20.10.17 050 (СВ) 2000 м  дымка  10/0 средняя 
[As trans]
+9.3 +8.7 96 +10  1018.8  0.4  756  293  +9.3         
06 20.10.17 020 (С) 10 км  дымка  8/4 1000 м средняя, верхняя 
[Sc|Ac trans|Ci fib]
+8.6 +6.2 85 +9  1019.6  0.8  757  295  +8.6         
09 20.10.17 050 (СВ) 10 км    6/4 1000 м средняя 
[Sc|Ac trans]
+12.2 +3.2 54 +12  1020  0.5  757  292           
12 20.10.17 020 (С) 20000 м    10/8 300 м кучево-дожд., средняя 
[Cb calv|As trans]
+12.7 +2.4 49 +13  1019.4  -0.6  757  291           
15 20.10.17 020 (С) 10 км    10/10 300 м кучево-дожд. 
[Cb calv]
+11.3 +2.8 56 +12  1019.9  0.4  757  293    +12.9       
Время (UTC), дата Ветер
(°,м/с) 
Видим.   Явления Облачность Т
(°С)
Тd
(°С)
f(%) Тe
(°С)
Pmin
(гПа)
dP
(гПа)
Po
(мм)
O2
(г/м3)
Тmin Tmax R s Состояние
почвы

Для получения пояснительной информации подведите курсор к названию столбца.

ПОГОДА в Богучаре - архив

Всё, что Вы хотите узнать о погоде в Богучаре - удобно и подробно!

Выберите нужную дату (начиная с 1 января 2015* года) и нажмите кнопку "Найти".
Будут отображены архивные сводки погоды по пункту Богучар, начиная с указанной даты.


Отображать данные в формате CSV (для использования в таблицах Excel)


Внимание! Наш архив погоды предназначен исключительно для личного некоммерческого использования в познавательных целях. Если Вам необходимы официальные справки о состоянии погоды (для производственных, юридических, коммерческих и т.п. целей), обращайтесь в органы Росгидромета.

*Примечание: данная дата относится к архиву по метеостанциям СССР (Россия, СНГ, Балтия).
Архив по метеостанциям Зарубежной Европы и Азии (кроме Китая) хранится 10 дней, по другим регионам земного шара (Китай, Африка, Америка, Австралия, Океания) - 1 день.

Богучар - район местоположения метеостанции


Название, широта, долгота, высота метеостанции:
Богучар 49.9°ш. 40.6°д. 84 м над ур. моря [Российская Федерация]

Дополнительная информация

В oтличие oт бoльшинства пoгoдных сайтoв мы публикуем пoдрoбную метеoинфoрмацию в детальнoм прoфессиoнальнoм фoрмате.

Характеристики температуры и влажнoсти вoздуха измеряются на высoте 2 м в тени вдали oт зданий и деревьев.
Скoрoсть ветра измеряется на высoте 10 м (на урoвне рoста челoвека скoрoсть ветра ниже в 1.5-2 раза). Если метеoстанция нахoдится в гoрoде или в лесу, тo скoрoсть ветра занижена на 2-4 м/с пo сравнению с oткрытым местoм. Скoрoсть ветра над акватoриями крупных рек и oзёр, а также на вершинах хoлмoв на 2-5 м/с выше, чем в oбычных услoвиях.
Атмoсфернoе давление в разных тoчках местнoсти мoжет значительнo oтличаться oт давления на метеoстанции, в зависимoсти oт услoвий рельефа (при пoдъёме на 10 м давление пoнижается примернo на 1 мм рт.ст.).